This is the latest recevied weather packets stored in our database for station/object KI5RAB. If no packets are shown the sender has not sent any weather packets the latest 10 day(s).
| Time | Temp. | Humidity | Pressure | Rain* | Wind** | Luminosity | Snow |
|---|---|---|---|---|---|---|---|
| 1777633023 | 16.11° C | 98% | 1015.7 hPa | 10.67 mm | - | 0 W/m² | - |
| 1777632719 | 16.11° C | 98% | 1015.7 hPa | 10.67 mm | - | 0 W/m² | - |
| 1777632415 | 16.11° C | 98% | 1015.1 hPa | 7.11 mm | - | 0 W/m² | - |
| 1777632112 | 16.11° C | 98% | 1014.8 hPa | 6.1 mm | - | 0 W/m² | - |
| 1777631810 | 16.11° C | 98% | 1014.9 hPa | 6.1 mm | - | 0 W/m² | - |
| 1777631508 | 16.11° C | 98% | 1014.8 hPa | 6.1 mm | - | 0 W/m² | - |
| 1777631204 | 16.11° C | 98% | 1015 hPa | 7.87 mm | - | 0 W/m² | - |
| 1777630902 | 16.11° C | 98% | 1014.9 hPa | 10.67 mm | - | 0 W/m² | - |
| 1777630597 | 16.11° C | 98% | 1014.6 hPa | 8.89 mm | - | 0 W/m² | - |
| 1777630294 | 16.67° C | 98% | 1014.9 hPa | 1.78 mm | - | 0 W/m² | - |
| 1777629992 | 16.67° C | 98% | 1015.4 hPa | 1.27 mm | - | 0 W/m² | - |
| 1777629690 | 16.67° C | 98% | 1014.8 hPa | 1.27 mm | - | 0 W/m² | - |
| 1777629386 | 16.67° C | 98% | 1014.2 hPa | 0 mm | - | 0 W/m² | - |
| 1777629081 | 16.67° C | 98% | 1013.9 hPa | 0 mm | - | 0 W/m² | - |
| 1777628779 | 16.67° C | 98% | 1014 hPa | 1.78 mm | - | 0 W/m² | - |
| 1777628475 | 16.67° C | 98% | 1013.8 hPa | 3.05 mm | - | 0 W/m² | - |
| 1777628171 | 16.67° C | 98% | 1014.1 hPa | 8.89 mm | - | 0 W/m² | - |
| 1777627867 | 16.67° C | 98% | 1013.7 hPa | 19.81 mm | - | 0 W/m² | - |
| 1777627566 | 16.67° C | 98% | 1013.4 hPa | 28.7 mm | - | 0 W/m² | - |
| 1777627260 | 16.67° C | 98% | 1014.4 hPa | 21.59 mm | - | 0 W/m² | - |
| 1777626958 | 16.67° C | 98% | 1015.6 hPa | 6.6 mm | - | 0 W/m² | - |
| 1777626654 | 16.67° C | 98% | 1015.1 hPa | 4.83 mm | - | 0 W/m² | - |
| 1777626350 | 16.67° C | 98% | 1013.8 hPa | 7.11 mm | - | 0 W/m² | - |
| 1777626048 | 16.67° C | 98% | 1014.1 hPa | 10.16 mm | - | 0 W/m² | - |
| 1777625749 | 16.67° C | 98% | 1013.7 hPa | 8.89 mm | - | 0 W/m² | - |
* Rain latest hour (hover to see other rain measurements)
** Current wind speed in m/s (hover to see current wind gust speed)